AirNav   Everest Fuels
 
 469 users online  

90NY Hopewell Airpark
Canandaigua, New York, USA

GOING TO CANANDAIGUA?


FAA INFORMATION EFFECTIVE 16 JULY 2020

Location

FAA Identifier: 90NY
Lat/Long: 42-55-10.2300N 077-14-34.0000W
42-55.170500N 077-14.566667W
42.9195083,-77.2427778
(estimated)
Elevation: 730 ft. / 223 m (estimated)
Variation: 11W (1985)
From city: 3 miles NE of CANANDAIGUA, NY
Time zone: UTC -4 (UTC -5 during Standard Time)
Zip code: 14424

Airport Operations

Airport use: Private use. Permission required prior to landing
Activation date: 08/1959
Control tower: no
ARTCC: CLEVELAND CENTER
FSS: BUFFALO FLIGHT SERVICE STATION
Attendance: IREG
Pattern altitude: 2230 ft. MSL
Wind indicator: yes
Segmented circle: no
Lights: FOR LIRL RY 07/25 PPR 2 HRS IN ADVANCE CALL 585-474-2918

Airport Communications

UNICOM: 122.8
WX AWOS-3P at IUA (4 nm W): 118.675 (585-396-5861)
WX ASOS at PEO (19 nm SE): 121.175 (315-536-4102)
WX AWOS-3 at SDC (20 nm N): 124.2 (315-483-6171)

Nearby radio navigation aids

VOR radial/distance  VOR name  Freq  Var
GEEr086/22.1GENESEO VOR/DME108.2009W
ROCr134/22.3ROCHESTER VOR/DME110.0012W

 
NDB name  Hdg/Dist  Freq  Var  ID
PENN YAN346/18.526012WPYA .--. -.-- .-

Airport Services

Parking: tiedowns
Airframe service: MINOR
Powerplant service: MINOR
Bottled oxygen: NONE
Bulk oxygen: NONE

Runway Information

Runway 1/19

Dimensions: 1495 x 65 ft. / 456 x 20 m
Surface: turf, in good condition
RUNWAY 1  RUNWAY 19
Traffic pattern: leftleft
Obstructions: 10 ft. bush, 35 ft. right of centerline18 ft. trees, 45 ft. left and right of centerline

Runway 7/25

Dimensions: 1425 x 80 ft. / 434 x 24 m
Surface: turf, in good condition
Runway edge lights: non-standard
RY 07/25 LIRL LGTD PAINTED WHITE CONES.
RUNWAY 7  RUNWAY 25
Traffic pattern: leftleft
Obstructions: 46 ft. trees, 566 ft. from runway, 120 ft. right of centerline, 12:1 slope to clear15 ft. road, 34 ft. from runway, 2:1 slope to clear

Airport Ownership and Management from official FAA records

Ownership: Privately-owned
Owner: HOPEWELL AIRPARK INC
4695 COUNTY ROAD ONE
CANANDAIGUA, NY 14424
Phone 585-727-8336
Manager: PAUL MOORE
4695 COUNTY ROAD ONE
CANANDAIGUA, NY 14424
Phone 585-727-8336
AMGR MAY BE REACHED WINTER MONTHS IN FL AT 585-727-8336

Airport Operational Statistics

Aircraft based on the field: 15
Single engine airplanes: 15
    
Aircraft operations: avg 24/week *
88% local general aviation
12% transient general aviation
* for 12-month period ending 16 August 2007

Additional Remarks

RY 07/25 FARM EQUIPMENT CROSSING APPROACH.
RY 01/19 HAS +15 FT TREE LINE 80 FT FM CNTRLN WEST SIDE OF RY.
RY 25 HAS +15 FT ROAD, 34 FT FM THLD.
TURF RYS NOT MAINTAINED DURG WINTER MONTHS.
FOR CD CTC CLEVELAND ARTCC AT 440-774-0490.

Instrument Procedures

There are no published instrument procedures at 90NY.

Some nearby airports with instrument procedures:

KIUA - Canandaigua Airport (4 nm W)
KPEO - Penn Yan Airport (19 nm SE)
KSDC - Williamson-Sodus Airport (20 nm N)
0G7 - Finger Lakes Regional Airport (20 nm E)
KROC - Greater Rochester International Airport (22 nm NW)
 
Loc | Ops | Rwys | IFR | FBO | Links
Com | Nav | Svcs | Stats | Notes
Area around 90NY (Hopewell Airpark)
 
Road maps at: MapQuest Bing Google
 
Aerial photo
No photo
 
Sectional chart

 
Airport distance calculator
Flying to Hopewell Airpark? Find the distance to fly.

From to 90NY

Sunrise and sunset
Times for 05-Aug-2020
 Local
(UTC-4)
 Zulu
(UTC)
Morning civil twilight05:3509:35
Sunrise06:0610:06
Sunset20:2300:23
Evening civil twilight20:5500:55

Current date and time
Zulu (UTC)  05-Aug-2020 06:07:08
Local (UTC-4)  05-Aug-2020 02:07:08
 
METAR
KPEO 
18nm SE 
050553Z AUTO 21008KT 10SM -RA OVC090 20/17 A2992 RMK AO2 RAB51 SLP124 P0000 60000 T02000172 10211 20178 51007
KSDC 
20nm N 
050555Z AUTO 23003KT 10SM SCT110 18/16 A2988 RMK AO2
KROC 
23nm NW 
050554Z 25009KT 10SM BKN080 OVC100 18/17 A2989 RMK AO2 SLP123 BINOVC 60004 T01830172 10222 20172 53002
KDSV 
30nm SW 
050554Z AUTO 00000KT 10SM SCT085 BKN100 19/17 A2993 RMK AO2 SLP139 60000 T01940172 10228 20189 51006
K6B9 
35nm E 
050555Z AUTO 22007KT 10SM OVC100 20/19 A2990 RMK AO2
TAF
KROC 
23nm NW 
050539Z 0506/0606 24007KT P6SM OVC090 FM050900 25009KT P6SM BKN025 FM051100 25009KT P6SM SCT040 FM051300 26010G16KT P6SM SCT070 FM060500 23005KT P6SM FEW250
NOTAMs
Click for the latest NOTAMs
NOTAMs are issued by the DoD/FAA and will open in a separate window not controlled by AirNav.

 

 
 

Would you like to see your business listed on this page?

 If your business provides an interesting product or service to pilots, flight crews, aircraft, or users of the Hopewell Airpark, you should consider listing it here.  To start the listing process, click on the button below
 
Add a business
 

Other Pages about Hopewell Airpark

Update a link
 
Copyright © AirNav, LLC. All rights reserved. Privacy Policy  Contact